EXPRESS-AM44

Last updated on Tue Jul 01 2025 00:02:44 GMT+0000 (Coordinated Universal Time)

1 33595U 09007A 25181.42287120 -.00000091 00000+0 00000+0 0 9993 2 33595 2.5580 82.7855 0004691 15.0766 322.0786 1.00271925 48756
UTC large
Height (km)
Speed (km/s)
/
Latitude / Longitude
Inclination (degrees)
Orbital Period (minutes)
Azimuth
Elevation
Range (km)
Doppler Factor

Next 0 passes for location: London (51.5072 / 0.1276)

Sorry there are no passes over London.